Preview of NWS' New Version of Forecast
This preview is not operational and should not be used for support decisions.

Regional Weather Roundup (RWR)

Issued by National Weather Service (NWS)

                            
000
ASUS43 KDMX 190801
RWRIA 

WEATHER ROUNDUP FOR IOWA
NATIONAL WEATHER SERVICE DES MOINES IA
300 AM CDT FRI APR 19 2019

NOTE: "FAIR" INDICATES FEW OR NO CLOUDS BELOW 12,000 FEET WITH NO
SIGNIFICANT WEATHER AND/OR OBSTRUCTIONS TO VISIBILITY.

* - THESE STATIONS ARE NOT NWS STATIONS...THUS NOT UNDER NWS
QUALITY CONTROL.  THEY ALSO DO NOT REPORT WEATHER SUCH 
AS PRECIPITATION OR FOG.  

IAZ001>003-012>014-020>022-031>034-043>046-190900-
   NORTHWEST IOWA
  
CITY           SKY/WX    TMP DP  RH WIND       PRES   REMARKS
CARROLL *      CLEAR     39  37  93 N9        30.00S WCI  33          
CHEROKEE *     CLEAR     35  34  96 NE7       30.04S WCI  29          
DENISON *      PTCLDY    36  36 100 CALM      30.04R                  
LE MARS *      CLEAR     37  36  93 NE6       30.05S WCI  33          
SHELDON *      CLEAR     32  32 100 N3        30.03S                  
SIOUX CITY     CLEAR     37  34  89 NW7       30.05F WCI  32          
SPENCER        CLEAR     35  32  88 N8        30.03R WCI  29          
STORM LAKE *   CLEAR     36  36 100 N8        30.00S WCI  29          
$$
 
IAZ055>058-069>071-079>083-090>094-190900-
   SOUTHWEST IOWA
  
CITY           SKY/WX    TMP DP  RH WIND       PRES   REMARKS
ATLANTIC *     CLEAR     36  36 100 N6        29.99F WCI  31          
AUDUBON *      CLEAR     39  36  87 CALM      30.00F                  
CLARINDA *     CLEAR     41  37  87 N8        30.02S                  
COUNCIL BLFS * CLEAR     41  41 100 NW9       30.02S                  
CRESTON *      CLEAR     41  37  87 N10       29.96F                  
HARLAN  *      CLEAR     37  36  93 N8        30.01F WCI  31          
LAMONI         CLEAR     43  38  82 N12       29.94S                  
RED OAK *      CLEAR     41  39  93 NW9       30.00F                  
SHENANDOAH *   PTCLDY    45  39  81 NW10      30.00F                  
$$
 
IAZ047>049-059>061-072>074-084-190900-
   CENTRAL IOWA
  
CITY           SKY/WX    TMP DP  RH WIND       PRES   REMARKS
AMES           PTCLDY    39  36  89 N9        29.97S WCI  33          
ANKENY *       PTCLDY    41  37  87 N12       29.97S                  
BOONE *        CLEAR     37  37 100 N10       29.96F WCI  30          
CHARITON *     MOCLDY    43  39  87 NW13      29.93S                  
DES MOINES     PTCLDY    43  37  79 N7        29.96S                  
GRINNELL*      CLOUDY    38  36  91 N9        29.94S WCI  32          
KNOXVILLE *    CLOUDY    43  43 100 N12       29.93S                  
MARSHALLTOWN   CLEAR     39  37  92 N12       29.94S WCI  32          
NEWTON *       CLEAR     41  39  93 N12       29.94S                  
PELLA *        MOCLDY    41  37  84 N7        29.94F                  
PERRY *        FAIR      38  37  96 NW7       29.98S WCI  33          
$$
 
IAZ004>006-015-016-023>025-035-036-190900-
   NORTH CENTRAL IOWA
  
CITY           SKY/WX    TMP DP  RH WIND       PRES   REMARKS
ALGONA *       CLEAR     36  36 100 NW7       29.99S WCI  30          
CLARION *      CLEAR     34  34 100 N5        29.99R WCI  30          
ESTHERVILLE    CLEAR     34  32  92 NW12      30.01S WCI  25          
FORT DODGE *   CLEAR     38  36  92 N7        30.00S WCI  33          
MASON CITY     CLEAR     34  33  96 NW9       29.99S WCI  27          
FOREST CITY *  FAIR      36  34  93 N7        29.99S WCI  30          
IOWA FALLS *   FAIR      39  37  91 N7        29.97S WCI  34          
$$

IAZ007>011-017>019-026>030-037>042-050>054-066-190900-
   NORTHEAST IOWA
  
CITY           SKY/WX    TMP DP  RH WIND       PRES   REMARKS
CEDAR RAPIDS   FAIR      40  36  86 N10       29.88F WCI  33          
CHARLES CITY * FAIR      37  34  87 N9        29.96S WCI  31          
CLINTON *      CLOUDY    43  37  79 N13       29.86R                  
DECORAH *      FAIR      39  36  87 N9        29.92S WCI  33          
DUBUQUE        FAIR      41  35  79 N12       29.86F                  
MONTICELLO *   FAIR      41  37  87 N9        29.88S                  
OELWEIN *      FAIR      39  37  93 N12       29.93S WCI  32          
WATERLOO       FAIR      39  35  86 N10       29.93F WCI  32          
$$
 
IAZ064-065-067-068-078-190900-
   EAST CENTRAL IOWA
  
CITY           SKY/WX    TMP DP  RH WIND       PRES   REMARKS
DAVENPORT      CLOUDY    44  36  73 N13       29.87S                  
IOWA CITY      FAIR      45  35  68 N9        29.90S                  
MT. PLEASANT * CLOUDY    45  37  76 N13       29.88R                  
MUSCATINE *    CLOUDY    46  36  66 N15       29.88R                  
QUAD CITIES    CLOUDY    47  36  65 N10G17    29.84S                  
$$
 
IAZ062-063-075>077-085>089-095>099-190900-
   SOUTHEAST IOWA
  
CITY           SKY/WX    TMP DP  RH WIND       PRES   REMARKS
BURLINGTON     CLOUDY    46  34  62 N17       29.85R                  
FAIRFIELD *    MOCLDY    41  36  81 N12       29.88S                  
FORT MADISON * CLOUDY    45  37  76 N12       29.86S                  
KEOKUK *       CLOUDY    46  37  71 N16       29.85S                  
OSKALOOSA *    CLOUDY    43  37  78 N12       29.91F                  
CENTERVILLE *  MOCLDY    45  39  81 NW12      29.92S                  
OTTUMWA        PTCLDY    42  36  79 N10       29.91S                  
WASHINGTON *   PTCLDY    41  39  93 N12       29.90R                  
$$

ABBREVIATIONS USED IN REMARKS
   TC - TEMPERATURES IN CELSIUS
  WCI - WIND CHILL INDEX
   HX - HEAT INDEX
  VSB - VISIBILITY  
$$